TimeCDT,TemperatureF,Dew PointF,Humidity,Sea Level PressureIn,VisibilityMPH,Wind Direction,Wind SpeedMPH,Gust SpeedMPH,PrecipitationIn,Events,Conditions,WindDirDegrees,DateUTC
12:53 AM,73.9,44.1,34,30.04,10.0,NE,6.9,-,N/A,,Clear,50,2013-07-03 05:53:00
1:53 AM,72.0,45.0,38,30.04,10.0,ENE,3.5,-,N/A,,Clear,60,2013-07-03 06:53:00
2:53 AM,71.1,46.0,41,30.04,10.0,NNE,5.8,-,N/A,,Clear,20,2013-07-03 07:53:00
3:53 AM,69.1,46.0,44,30.03,10.0,NNE,6.9,-,N/A,,Clear,20,2013-07-03 08:53:00
4:53 AM,69.1,46.0,44,30.02,10.0,Calm,Calm,-,N/A,,Clear,0,2013-07-03 09:53:00
5:53 AM,64.9,48.0,54,30.02,10.0,Calm,Calm,-,N/A,,Clear,0,2013-07-03 10:53:00
6:53 AM,64.9,48.9,56,30.02,9.0,Calm,Calm,-,N/A,,Clear,0,2013-07-03 11:53:00
7:53 AM,69.1,51.1,53,30.03,9.0,NNE,3.5,-,N/A,,Clear,20,2013-07-03 12:53:00
8:53 AM,75.0,53.1,46,30.04,10.0,Calm,Calm,-,N/A,,Clear,0,2013-07-03 13:53:00
9:53 AM,80.1,53.1,39,30.05,10.0,Calm,Calm,-,N/A,,Clear,0,2013-07-03 14:53:00
10:53 AM,84.0,48.0,28,30.04,10.0,Variable,3.5,-,N/A,,Clear,0,2013-07-03 15:53:00
11:53 AM,88.0,45.0,22,30.03,10.0,North,4.6,-,N/A,,Clear,360,2013-07-03 16:53:00
12:53 PM,88.0,45.0,22,30.01,10.0,Variable,5.8,-,N/A,,Clear,0,2013-07-03 17:53:00
1:53 PM,90.0,43.0,19,29.99,10.0,NNE,11.5,-,N/A,,Clear,30,2013-07-03 18:53:00
2:53 PM,91.0,42.1,18,29.97,10.0,North,8.1,-,N/A,,Clear,360,2013-07-03 19:53:00
3:53 PM,91.9,43.0,18,29.96,10.0,East,8.1,-,N/A,,Mostly Cloudy,100,2013-07-03 20:53:00
4:53 PM,91.9,43.0,18,29.94,10.0,ENE,11.5,16.1,N/A,,Partly Cloudy,70,2013-07-03 21:53:00
5:53 PM,91.9,42.1,18,29.92,10.0,NE,6.9,-,N/A,,Partly Cloudy,50,2013-07-03 22:53:00
6:53 PM,91.0,41.0,17,29.91,10.0,NNE,3.5,-,N/A,,Clear,20,2013-07-03 23:53:00
7:53 PM,89.1,42.1,19,29.91,10.0,ENE,5.8,-,N/A,,Clear,70,2013-07-04 00:53:00
8:53 PM,84.0,42.1,23,29.92,10.0,ENE,5.8,-,N/A,,Clear,70,2013-07-04 01:53:00
9:53 PM,81.0,42.1,25,29.93,10.0,ENE,4.6,-,N/A,,Clear,70,2013-07-04 02:53:00
10:53 PM,79.0,43.0,28,29.94,10.0,East,3.5,-,N/A,,Clear,100,2013-07-04 03:53:00
11:53 PM,77.0,45.0,32,29.95,10.0,Calm,Calm,-,N/A,,Clear,0,2013-07-04 04:53:00